sat.trackr.live / text

‹ back to catalog

STARLINK-35034

NORAD 65431 · 2025-192AD

PAYLOAD ACTIVE UNKNOWN

§ Identity

Operator
Country
US
Launch date
2025-08-31
Launch site
AFETR
Launch vehicle
Mass (kg)
RCS (m²)

Purposes: comms

External: N2YO · Heavens-Above · Gunter

§ Orbital elements

Epoch: 2026-09-20T15:47:54.831264Z

Period
93.85 min
Inclination
53.1618°
Eccentricity
0.0000559
Mean motion
15.34379540 rev/d
Perigee alt
462.4 km
Apogee alt
463.1 km
Semi-major
6,840.9 km
B*
2.3826e-4
RAAN
44.6890°
Arg perigee
351.6960°
Mean anomaly
8.4033°
Rev number
5,926

§ Raw data

STARLINK-350341 65431U 25192AD  26263.65827351  .00007677  00000+0  23826-3 0  99942 65431  53.1618  44.6890 0000559 351.6960   8.4033 15.34379540 59266

JSON: /api/v1/satellites/65431 · /tle

For live sub-satellite position, see the globe view (requires WebGL).

§ Visibility from observer

Set your observer location to see the next 7 days of passes ≥ 10°. The values pass through the URL so the page stays shareable.

No JS? Fill the form by hand. The geolocation button needs JavaScript.